Location: Ammerl�gen
(47.2167°N, 9.6000°E)
Time: 12:48:28
(UTC+00:00)

Iridium 4 Rocket - Pass Details

Date: 30 July 2021
Orbit: 583 x 905 km, 86.9° (Epoch: 25 September)

Event Time Altitude Azimuth Distance (km) Brightness Sun altitude
Rises 00:47:06 0° 1° (N) 3,384 8.1 -21.9°
Reaches altitude 10° 00:49:31 10° 6° (N) 2,486 7.2 -21.8°
Maximum altitude 00:55:02 51° 83° (E) 1,099 4.4 -21.4°
Enters shadow 00:58:33 23° 149° (SSE) 1,813 5.1 -21.2°
